Location: Gleizolles
(44.4833°N, 6.7667°E)
Time: 21:27:03
(UTC+00:00)

Tiros 1 despin weight - Pass Details

Date: 29 June 2024
Orbit: 576 x 620 km, 48.2° (Epoch: 19 July)

Event Time Altitude Azimuth Distance (km) Brightness Sun altitude
Rises 15:50:25 0° 284° (WNW) 2,895 ? 34.7°
Reaches altitude 10° 15:53:26 10° 264° (W) 1,982 ? 34.1°
Maximum altitude 15:56:18 17° 225° (SW) 1,582 ? 33.6°
Drops below altitude 10° 15:59:10 10° 185° (S) 1,964 ? 33.1°
Sets 16:02:09 0° 165° (SSE) 2,856 ? 32.6°
